ALSAT 1B

Last updated on Tue Jul 01 2025 00:02:30 GMT+0000 (Coordinated Universal Time)

1 41785U 16059C 25181.54977152 .00000239 00000+0 45807-4 0 9994 2 41785 97.7876 200.3721 0007903 277.8345 82.1966 14.71849792468845
UTC large
Height (km)
Speed (km/s)
/
Latitude / Longitude
Inclination (degrees)
Orbital Period (minutes)
Azimuth
Elevation
Range (km)
Doppler Factor

Next 0 passes for location: London (51.5072 / 0.1276)

Sorry there are no passes over London.